{"data":{"norad_id":69669,"intl_designator":"2026-143W","name":"STARLINK-37945","alt_names":[],"object_type":"PAYLOAD","status":"ACTIVE","operator":null,"country":"US","launch_date":"2026-06-21","launch_site_code":"AFWTR","launch_vehicle":null,"mission":null,"orbit_class":"UNKNOWN","rcs_meters":null,"size_class":null,"mass_kg":null,"dimensions":null,"purposes":["comms"],"wikipedia_slug":null,"has_3d_model":false,"image_url":null,"decayed_at":null,"tle_current":{"epoch":"2026-09-19T21:56:45.153600Z","epoch_age_seconds":72265,"freshness":"FRESH","line1":"1 69669U 26143W   26262.91441150  .00017840  00000+0  55350-3 0  9995","line2":"2 69669  97.2856 306.1244 0001399  87.4998 272.6404 15.33451454 15053","mean_motion":15.33451454,"eccentricity":0.0001399,"inclination_deg":97.2856,"raan_deg":306.1244,"arg_perigee_deg":87.4998,"mean_anomaly_deg":272.6404,"bstar":0.0005535,"rev_number":1505,"period_min":93.905809423818,"perigee_km":464.56654381228,"apogee_km":466.48140015224,"semimajor_km":6843.6609719823,"source":"CELESTRAK","updated_at":"2026-09-20T09:00:44.250895Z"}}}